Wind_Speed
44 41 37 34 30 28 25 23 22 21 21 20 20 21 21 23 24 26 28 30 32 35 37 39 39 39 38 36 37 37 38 40 41 43 45 47 48 49 49 49 49 49 49 48 41 32 27 28 32 35 32 32 34 33 31 32 33 35 36 35 38 42 43 43 46 50 49 45 42 42 42 40 43 49 49 45 44 44 43 44 46 47 46 44 45
45 41 37 34 30 28 25 24 22 21 20 20 20 21 22 23 25 27 29 31 33 36 37 38 38 37 36 36 37 38 39 41 42 44 45 47 47 48 49 48 48 47 46 46 36 24 25 30 30 30 32 33 35 35 34 34 34 36 36 35 38 42 41 41 43 45 47 45 41 41 42 40 43 50 51 48 47 45 41 40 46 49 46 44 45
46 41 37 33 30 28 26 24 22 21 20 20 20 21 22 24 26 28 30 32 34 35 36 36 36 35 35 36 37 39 40 41 43 44 45 46 46 47 48 46 45 44 42 38 29 23 27 32 31 28 29 32 34 35 37 37 34 35 37 36 38 42 41 41 45 46 48 48 41 39 39 38 41 47 48 48 48 43 41 43 47 49 45 42 44
45 41 37 33 30 28 26 23 22 20 19 19 20 21 22 24 27 28 30 32 34 35 35 34 34 34 35 36 38 39 41 41 43 44 44 45 46 47 47 45 42 40 37 31 26 25 28 32 33 31 30 33 34 34 35 36 35 35 37 37 38 40 40 40 43 44 47 50 46 42 39 38 43 47 46 46 43 38 40 43 43 47 46 41 42
45 41 37 33 30 28 25 23 21 20 19 19 20 21 23 25 27 29 30 32 33 33 32 32 32 33 34 36 38 39 41 42 43 44 45 45 46 47 46 44 40 34 29 28 28 29 31 33 34 32 33 35 36 36 37 35 35 36 38 39 39 40 41 42 43 43 43 44 45 44 43 42 46 49 46 43 39 35 38 40 40 45 45 41 41
45 41 36 33 30 27 25 22 21 20 19 19 20 21 23 25 27 29 30 31 31 31 30 30 31 33 34 35 37 38 40 41 42 43 45 45 45 45 43 40 35 31 31 33 35 36 36 37 37 35 36 37 37 39 40 37 37 38 39 42 42 41 42 44 47 50 49 46 41 38 41 45 47 49 48 41 36 33 34 36 40 44 42 40 42
44 40 36 33 30 27 25 22 20 19 18 19 20 22 24 25 26 28 29 30 29 28 28 29 31 32 34 35 37 38 39 41 42 42 43 44 44 42 40 38 37 37 40 42 41 41 41 41 41 41 40 40 39 40 41 41 40 38 37 38 37 36 36 37 40 45 50 53 50 44 40 41 43 47 46 37 33 34 34 36 41 42 37 38 40
43 39 35 33 29 27 24 21 20 19 18 19 21 22 23 24 25 27 28 27 27 27 27 29 30 32 33 35 36 37 38 39 40 41 42 42 41 40 38 39 39 39 40 42 42 43 44 44 45 46 45 44 43 42 42 42 41 40 38 35 33 34 35 34 34 36 38 43 48 48 44 41 41 43 40 33 32 34 32 30 35 37 34 36 38
42 38 35 32 29 26 23 21 19 18 18 19 21 22 22 23 24 25 26 25 25 26 27 29 31 32 33 34 35 36 38 38 39 40 40 40 39 38 37 38 39 40 41 42 43 44 44 45 47 48 47 48 47 44 42 42 43 43 42 38 36 36 36 36 34 33 33 35 36 40 44 45 41 38 36 32 30 30 27 27 32 34 35 37 38
41 38 35 31 28 25 22 20 19 18 19 20 21 21 21 22 23 23 24 24 24 25 27 28 30 32 33 34 35 36 37 37 38 38 38 38 37 36 37 39 40 42 44 45 46 46 45 44 45 45 45 48 49 44 41 42 44 46 44 41 41 41 43 44 41 35 35 35 33 33 39 42 39 35 33 30 28 27 26 29 33 33 33 35 39
41 37 34 30 27 24 21 19 18 18 19 19 19 20 20 21 22 22 22 23 24 25 27 28 29 31 32 34 35 36 36 36 37 37 37 35 33 33 36 39 41 42 44 45 46 45 44 42 42 42 42 45 47 46 44 44 43 45 45 44 44 45 47 49 46 41 38 37 35 35 37 37 33 32 30 26 25 26 26 28 32 32 31 31 35
40 37 33 30 26 23 21 19 18 18 18 18 18 18 19 20 21 21 21 22 24 25 26 28 29 30 32 33 34 36 36 36 36 36 36 34 32 31 34 38 40 43 43 43 43 42 42 40 40 40 38 39 42 44 45 45 43 43 45 46 46 46 46 47 47 45 42 40 38 39 42 39 33 29 27 26 26 26 26 29 30 30 31 29 32
39 36 33 29 26 22 20 19 18 18 17 17 17 17 19 20 20 20 21 22 24 25 26 27 28 29 31 33 35 35 36 35 35 36 35 34 32 30 35 38 39 41 41 40 40 39 40 40 40 40 38 38 40 42 42 43 42 42 43 43 46 46 45 46 47 46 45 45 43 43 45 45 39 30 24 26 29 29 29 32 33 31 31 31 32
39 36 32 28 25 22 20 18 18 17 16 15 15 16 18 19 19 20 20 22 24 25 26 27 27 28 30 32 34 35 35 34 35 36 35 34 32 32 36 37 37 38 38 37 38 38 39 40 41 41 39 38 39 39 40 41 42 42 42 43 47 48 45 45 44 44 45 47 48 47 45 46 47 38 27 26 29 30 30 32 35 35 35 36 35
38 35 31 27 24 21 19 18 17 16 14 14 14 16 18 18 19 19 20 22 24 25 26 27 27 28 29 31 34 35 35 34 34 36 35 34 33 33 36 36 36 37 38 37 38 38 38 39 40 40 39 38 37 37 38 41 43 44 45 47 50 50 47 45 41 38 40 41 43 45 44 44 49 46 36 29 29 30 31 34 36 36 37 39 38
37 34 30 27 23 21 19 18 16 14 13 13 14 16 18 17 18 19 20 22 23 25 26 26 27 28 29 31 33 35 35 33 33 35 34 33 32 34 36 36 37 39 40 40 39 38 38 38 39 40 40 39 39 38 39 41 43 47 48 49 51 51 51 49 42 39 40 39 38 40 42 43 47 45 38 33 31 31 33 35 38 36 37 40 39
37 33 29 26 23 20 19 17 15 13 12 13 15 16 16 17 18 19 21 22 23 24 26 26 26 28 29 30 33 35 35 33 33 34 33 31 32 35 36 37 39 41 42 42 40 39 38 37 38 40 41 41 41 40 40 40 43 46 48 49 51 52 53 52 45 40 41 39 37 38 41 44 46 43 37 35 34 32 33 35 37 35 34 38 39
36 32 28 25 22 20 18 16 13 12 12 13 15 16 15 16 18 20 21 22 23 24 25 26 26 27 29 30 31 34 34 34 34 34 32 30 32 34 36 39 43 44 44 43 41 40 40 39 39 40 43 44 43 42 42 41 43 46 47 48 50 51 52 50 42 37 39 37 34 34 37 42 46 46 42 39 36 33 33 35 36 35 35 38 39
35 31 27 24 21 19 18 15 12 11 13 14 15 15 15 16 18 20 21 22 23 23 24 26 27 27 28 30 31 32 34 35 35 34 33 31 31 34 37 40 44 46 45 44 44 43 42 41 40 39 41 43 43 43 42 42 43 45 46 47 50 51 51 48 40 34 34 34 32 30 29 33 41 47 49 46 42 41 40 39 39 39 38 38 37
33 29 26 23 21 19 16 13 11 12 13 14 14 14 15 16 18 20 21 22 23 24 24 26 27 27 28 30 31 33 35 36 36 34 34 32 32 34 37 39 43 46 46 45 47 46 43 41 39 38 39 41 41 42 42 41 42 44 45 46 50 51 50 48 44 36 30 31 32 31 29 29 35 44 51 51 48 46 46 45 43 42 39 38 37
32 29 25 22 20 18 15 12 12 12 13 13 14 14 15 17 18 19 21 21 22 23 24 25 27 27 28 30 32 33 34 35 36 35 34 34 32 34 37 38 40 44 46 46 46 44 42 41 41 40 41 42 42 42 42 42 41 42 43 45 47 48 47 46 47 40 32 30 31 31 31 31 32 38 46 51 52 50 48 47 46 43 40 39 38
31 28 24 22 20 17 14 13 12 12 12 12 13 14 15 17 19 20 20 21 22 23 24 26 27 28 29 30 32 34 34 34 36 35 35 35 34 34 36 37 38 41 45 46 44 42 42 42 43 44 45 47 47 46 45 44 42 41 42 43 43 43 42 42 43 40 34 31 29 27 28 31 31 34 41 47 49 50 49 48 46 43 42 40 39
30 27 24 21 19 16 14 13 12 12 12 11 12 14 15 17 18 19 20 21 22 23 24 26 27 29 31 32 33 34 35 35 35 35 36 35 36 35 36 37 38 39 41 43 42 40 41 43 45 48 48 48 47 47 46 45 43 42 41 40 38 37 37 38 38 35 31 30 29 27 26 27 29 33 41 46 48 48 48 47 45 44 43 42 41
29 26 23 21 18 16 15 14 12 12 11 11 12 13 14 16 18 19 20 21 22 23 24 26 28 30 32 34 34 34 36 36 36 36 36 35 36 36 36 38 40 39 39 39 38 38 40 44 47 47 44 42 42 42 41 40 40 40 40 38 35 33 33 34 35 33 30 30 31 31 30 28 27 32 39 44 46 46 46 45 45 45 44 44 43
29 25 23 21 18 17 15 13 12 11 11 11 12 13 14 15 17 18 19 20 21 22 24 25 28 30 32 34 34 34 35 37 37 38 37 36 37 36 37 41 44 42 39 37 35 37 40 43 43 40 37 36 36 35 33 30 30 32 33 34 34 32 30 31 32 32 32 31 31 31 31 29 28 30 34 37 39 41 43 45 46 45 45 44 43
28 25 24 21 19 17 15 13 11 10 10 11 12 12 13 14 16 17 18 19 20 21 24 25 27 29 30 32 34 34 35 36 37 38 38 39 39 38 38 43 47 44 39 36 35 37 40 40 37 35 33 32 30 26 23 24 24 24 24 26 28 30 30 30 31 31 31 31 30 32 32 29 28 29 30 32 36 39 42 43 44 45 44 42 39
28 26 24 21 19 17 15 12 10 10 10 11 11 12 13 13 15 16 17 18 19 21 23 25 26 28 29 31 32 33 34 35 36 38 39 40 41 40 41 44 46 42 40 38 37 38 38 35 33 33 31 28 25 20 15 14 17 20 22 23 24 26 28 29 29 29 29 29 29 31 32 29 28 30 30 32 34 37 38 38 39 42 42 39 35
28 26 23 21 19 16 14 11 9 9 10 12 11 12 12 12 13 15 16 17 19 21 23 23 24 26 28 30 31 31 32 33 35 37 37 39 40 40 41 42 41 40 39 38 36 35 34 33 34 34 33 29 26 23 17 13 11 11 15 19 21 23 26 27 28 28 29 29 29 30 30 29 30 31 32 31 32 33 32 33 36 39 39 35 33
28 25 23 21 19 16 13 11 9 9 11 12 11 11 11 11 11 13 14 15 17 19 20 21 22 23 25 26 28 30 31 33 33 33 33 34 35 37 38 37 36 36 36 35 34 33 33 35 39 42 40 37 34 32 27 22 16 10 8 12 16 20 23 25 26 26 27 28 31 32 31 29 29 30 30 30 31 30 29 31 35 37 35 32 34
28 25 23 20 18 15 13 11 10 11 11 11 10 10 10 10 10 10 11 13 14 15 16 17 18 19 21 22 22 23 25 28 29 30 31 31 32 33 33 32 31 33 33 33 33 34 36 40 44 46 46 44 42 40 36 32 28 22 14 11 12 15 18 21 24 25 26 26 28 30 30 29 28 29 28 29 29 30 29 31 33 33 32 33 35
27 25 22 20 18 16 14 12 12 11 11 10 9 9 8 9 10 10 10 11 12 12 13 14 15 16 18 20 20 20 20 23 25 27 28 30 31 32 32 30 29 30 32 33 34 35 39 42 44 45 47 47 46 44 41 38 36 32 25 18 14 13 14 15 17 20 23 26 28 28 29 29 29 29 28 28 29 29 29 29 30 30 33 36 37
25 24 22 20 18 17 15 14 13 12 11 10 9 7 6 5 7 9 11 12 13 11 11 12 13 15 16 17 19 20 21 22 24 25 27 29 31 32 31 29 29 30 30 33 35 38 42 45 45 45 46 46 47 46 44 42 39 37 33 27 21 17 15 14 14 15 17 22 27 29 28 29 30 31 31 30 29 29 27 26 27 31 35 38 40
25 23 22 21 19 18 16 14 13 12 11 10 9 7 6 4 2 1 4 8 11 12 12 12 13 14 15 16 17 19 20 22 24 25 26 27 30 31 30 29 30 31 32 36 40 42 44 46 46 46 45 45 47 47 45 44 42 40 37 33 29 24 20 16 15 14 14 17 22 27 30 30 31 32 32 31 29 28 26 26 28 33 37 39 41
25 22 21 20 19 17 16 14 13 12 10 9 8 6 5 3 1 1 1 2 3 6 9 11 12 12 14 16 17 18 20 22 23 25 26 27 29 30 30 30 30 32 36 40 43 44 45 46 47 47 46 46 47 48 47 45 44 43 40 36 32 28 22 18 15 13 13 14 17 22 27 29 30 30 30 30 29 27 26 27 29 36 39 40 42
26 24 22 20 19 17 16 14 13 11 10 9 7 6 3 2 2 3 3 4 4 5 8 11 12 13 14 16 17 18 19 21 22 23 25 27 29 30 31 33 36 37 38 41 43 44 45 46 47 47 47 47 48 49 48 47 45 44 42 39 35 31 26 21 18 15 13 14 15 18 21 24 26 27 28 30 30 27 26 27 32 38 40 39 42
28 26 24 22 20 18 16 14 12 11 10 8 6 5 2 1 2 4 5 6 8 9 10 11 12 13 14 15 15 16 18 20 21 23 24 26 29 32 35 37 39 39 40 42 43 44 44 45 46 47 47 47 48 49 49 47 46 45 44 42 38 35 31 28 24 19 15 13 14 16 18 21 23 25 28 30 30 27 26 28 34 40 41 39 42
28 26 24 23 20 18 16 14 13 11 10 8 6 4 2 0 2 3 5 6 8 9 11 12 12 12 13 14 14 15 18 19 19 20 21 24 27 32 36 37 38 39 40 42 43 44 45 45 46 47 47 47 48 50 50 49 48 47 46 44 41 37 35 31 27 21 17 14 13 13 16 19 21 24 27 28 27 25 25 28 35 41 42 40 41
26 25 23 22 20 19 17 15 13 11 10 9 7 4 2 1 1 2 4 5 7 9 11 13 14 15 15 16 16 17 19 20 19 19 22 25 29 33 36 37 37 38 39 40 42 43 44 45 46 48 48 48 49 51 52 51 49 48 48 47 44 41 37 33 28 22 18 15 14 13 14 16 18 20 24 24 25 25 25 28 35 41 42 40 40
28 25 23 22 20 19 17 15 13 12 10 9 7 5 3 2 1 2 3 5 7 9 10 12 14 16 17 18 18 19 20 22 23 24 26 28 30 33 35 36 37 37 38 39 40 42 43 45 47 48 49 49 50 52 53 52 51 50 51 50 48 46 42 37 31 26 21 18 16 14 13 13 13 15 18 21 24 26 26 28 35 40 41 40 40
30 28 26 23 21 20 18 15 14 12 11 9 7 6 4 3 2 2 3 5 6 8 10 11 13 15 17 18 20 20 21 21 23 25 26 28 29 31 33 35 36 37 37 38 40 41 43 44 46 48 49 51 52 53 54 54 53 53 54 53 51 49 47 41 35 30 26 21 18 16 13 11 10 10 13 18 23 26 27 28 33 38 41 41 42
30 28 27 25 22 20 18 17 14 13 11 10 8 7 6 5 3 3 3 4 5 6 8 10 12 13 15 16 17 18 18 20 21 23 24 26 27 29 31 33 34 36 37 38 39 40 42 43 45 47 49 51 53 54 55 55 55 56 56 55 53 52 49 44 39 35 30 26 22 18 13 10 8 8 9 13 19 25 27 27 30 35 39 41 44
29 27 26 25 23 20 18 17 15 14 12 11 9 8 7 6 4 3 3 3 4 5 7 8 10 11 12 13 14 15 15 17 19 21 22 23 25 26 28 30 32 34 35 36 37 39 40 41 44 46 47 50 53 55 55 56 57 58 57 55 54 54 52 47 41 37 33 29 25 20 15 10 7 7 8 10 15 22 26 27 29 33 36 38 41
28 26 25 24 22 21 18 17 16 14 13 12 10 9 7 6 5 4 3 3 4 4 5 6 8 9 10 11 11 12 14 15 17 19 21 22 23 24 25 27 29 31 32 34 35 37 39 40 42 44 45 48 52 54 55 56 57 58 58 57 56 56 53 48 42 38 35 32 28 22 16 11 8 7 8 10 12 18 24 27 29 32 33 34 36
28 27 26 24 22 21 19 18 16 15 14 12 11 9 8 7 6 4 3 3 4 4 4 5 6 7 8 9 10 11 13 14 16 18 20 21 22 23 24 25 27 28 30 32 33 35 37 39 41 43 45 47 50 54 55 55 55 57 58 58 58 57 54 48 43 39 36 34 31 26 19 13 8 7 8 9 11 15 21 26 28 30 32 32 33
29 28 26 25 23 22 20 19 17 16 15 13 11 10 9 8 6 4 4 3 3 3 4 5 5 6 7 8 9 11 13 14 16 18 19 21 22 23 24 25 26 27 28 31 33 34 36 38 40 42 44 46 49 53 56 56 55 56 57 57 56 56 53 47 41 37 35 33 30 27 22 15 9 7 8 9 10 13 18 24 27 30 32 32 32
28 27 26 25 23 22 20 19 18 17 15 14 12 11 10 8 7 5 4 3 3 3 3 4 5 6 7 8 10 11 12 14 15 17 18 20 21 23 24 25 25 26 27 28 31 33 35 36 38 40 43 46 48 51 54 57 58 57 56 56 55 54 51 46 40 36 34 31 28 26 23 18 11 6 7 9 10 12 16 21 25 29 33 34 35
28 27 25 24 23 22 21 20 19 17 16 14 13 12 10 9 7 6 5 4 3 3 3 3 4 5 6 7 9 11 12 14 15 16 18 19 20 22 24 24 25 26 27 28 29 31 33 34 36 38 41 44 47 49 52 55 58 59 58 57 56 54 51 47 42 37 34 31 27 23 21 18 12 6 6 9 11 12 15 19 24 28 32 36 37
29 27 26 24 23 22 21 20 19 18 16 15 14 12 11 9 8 7 6 5 3 3 3 3 3 4 5 7 8 10 11 13 14 16 17 18 20 21 23 24 26 28 29 30 31 31 32 32 34 36 38 41 45 48 50 52 55 58 59 58 55 53 50 48 44 40 36 32 28 23 20 17 13 8 5 8 10 12 14 18 22 27 30 34 37
29 28 27 25 23 21 20 20 19 18 16 15 14 13 11 10 9 8 7 5 4 3 3 2 3 3 4 6 8 9 10 12 13 15 16 18 20 21 23 24 26 28 30 31 32 32 32 31 32 34 36 39 43 48 50 49 50 54 58 57 55 52 50 48 47 44 39 35 32 27 22 18 14 9 4 4 9 11 13 16 20 24 28 32 35
29 27 26 25 23 22 21 20 19 17 16 16 15 13 12 11 9 8 7 6 5 4 3 2 2 2 4 5 7 8 10 11 13 15 16 18 20 21 23 24 26 28 29 31 32 32 32 32 32 33 36 38 41 45 49 48 47 50 54 56 55 53 51 49 49 48 44 41 37 32 27 21 16 11 6 2 6 10 13 16 19 22 26 30 33
28 27 26 24 23 22 21 20 18 17 17 16 15 14 12 11 10 9 8 6 5 4 3 2 2 2 3 5 6 8 10 11 13 15 16 18 20 21 23 24 26 27 28 30 31 32 33 34 33 34 35 37 39 43 47 47 46 47 51 54 56 55 52 50 49 49 48 46 43 38 32 26 21 15 10 4 1 5 10 15 18 21 23 27 30
Wind_Direction
224 225 227 228 230 233 237 241 246 251 258 266 274 281 288 294 299 303 305 308 311 311 312 312 312 312 311 312 313 314 316 317 317 316 314 313 312 311 310 309 307 306 304 301 297 287 278 276 277 278 272 264 264 265 263 260 259 258 256 256 256 258 259 256 260 267 269 269 268 268 268 264 265 261 253 255 262 261 263 268 269 269 268 258 242
224 225 226 228 229 232 235 240 245 251 259 267 275 283 290 297 301 304 307 310 312 311 312 312 312 312 312 313 315 317 318 318 317 316 315 314 313 311 310 309 308 305 302 300 294 279 276 279 279 280 276 269 264 264 264 262 262 260 256 255 258 261 261 259 261 266 269 271 268 268 269 263 264 266 257 256 263 262 260 266 270 270 270 262 248
224 225 226 227 228 230 234 238 244 251 259 268 277 286 293 299 302 305 308 311 312 312 312 312 312 312 313 315 317 318 319 318 317 316 315 314 313 311 310 309 307 304 300 296 286 276 279 282 282 282 282 280 273 266 265 264 263 261 259 257 260 264 264 263 266 265 266 270 270 268 268 262 262 263 257 258 262 259 260 266 268 269 270 264 251
223 224 224 225 226 228 232 237 243 251 260 269 279 287 294 299 302 306 310 311 312 312 312 312 312 312 314 316 318 319 319 318 317 316 316 315 314 312 311 310 307 303 297 288 279 278 280 282 285 287 287 287 285 278 273 268 263 263 262 261 263 266 268 269 269 267 267 266 266 267 267 265 264 260 258 265 263 256 261 266 267 270 271 266 254
221 222 222 223 225 227 230 236 243 251 260 271 280 289 295 299 302 307 310 311 312 312 312 312 311 313 316 317 318 318 318 318 317 317 318 316 315 314 313 312 307 299 291 287 287 287 285 283 285 288 288 287 286 287 284 276 269 265 263 263 264 265 266 266 265 263 265 265 263 263 263 262 263 260 261 267 263 258 264 266 267 272 273 268 255
220 221 221 221 222 225 229 235 243 251 262 272 281 289 294 299 304 309 311 311 311 311 311 311 312 314 316 317 317 318 318 318 319 319 319 317 316 316 313 308 302 294 291 295 298 297 293 289 287 286 286 285 286 289 289 285 278 272 270 269 269 267 266 267 266 262 261 264 266 266 264 261 261 262 264 264 259 260 267 269 272 275 276 273 258
218 219 219 219 221 224 228 234 242 252 263 273 282 289 294 300 306 310 311 310 311 311 310 311 313 315 316 317 318 318 319 320 320 320 320 318 317 316 311 307 303 300 299 300 301 301 299 295 291 288 285 284 286 288 288 287 284 279 274 271 269 268 266 268 272 267 263 262 264 267 270 267 262 263 266 262 256 261 266 271 277 278 280 278 261
217 217 216 218 220 223 228 234 242 253 264 274 283 290 296 304 309 310 310 310 310 310 310 312 314 315 317 317 318 319 320 321 321 321 320 319 318 316 312 308 304 299 298 298 297 298 298 294 293 290 285 284 287 289 288 286 285 284 278 271 267 267 266 268 271 271 268 264 262 263 266 267 265 266 265 259 257 262 266 272 278 281 286 283 265
215 215 215 216 219 222 227 235 243 255 266 275 284 291 299 307 309 309 309 308 309 309 310 314 315 315 317 317 318 320 320 322 322 321 321 321 320 316 309 305 302 298 298 297 294 294 293 290 290 288 285 286 289 290 290 283 276 279 280 273 267 267 267 268 269 269 271 269 265 263 262 264 267 268 264 259 258 263 267 273 278 282 289 286 267
213 213 213 214 218 222 228 236 245 257 268 277 285 294 303 308 308 309 308 307 308 310 312 315 315 316 317 318 319 320 321 323 323 321 322 322 319 315 308 305 304 301 300 299 297 295 292 288 287 285 283 285 285 284 288 285 274 273 276 270 266 267 270 272 270 267 269 269 270 270 265 264 267 267 265 261 260 263 268 275 278 283 290 289 274
211 211 211 213 217 222 228 237 249 259 269 278 288 298 306 307 308 308 307 307 308 311 314 314 315 316 317 317 319 319 322 324 323 321 323 323 319 314 309 305 303 301 299 299 296 294 293 288 286 284 281 281 280 278 283 286 276 270 269 266 265 266 267 270 269 266 266 266 268 269 264 263 268 267 262 261 261 263 269 276 279 284 288 287 280
209 209 210 213 216 222 230 239 251 261 270 281 292 302 306 306 307 307 305 307 310 311 314 314 315 317 316 317 318 320 323 325 323 321 323 325 323 314 306 303 302 300 299 297 294 291 291 287 285 284 280 277 278 278 280 281 276 271 269 266 265 265 263 265 266 265 265 264 265 265 261 260 267 268 261 260 264 266 270 273 275 282 287 284 283
207 207 209 212 216 223 231 240 252 261 272 286 296 303 305 304 305 305 306 309 310 311 313 314 315 316 316 317 318 320 324 324 322 322 325 329 328 316 305 302 300 299 297 296 293 290 289 288 285 283 280 277 277 277 276 275 273 273 271 268 268 269 266 263 262 262 263 262 262 264 262 259 261 266 267 265 267 268 269 271 271 277 284 284 286
206 206 208 212 216 223 232 241 252 263 275 289 297 301 302 303 303 304 307 309 309 312 313 313 315 316 316 318 318 320 324 324 323 326 330 334 330 315 306 303 300 299 298 296 294 290 288 288 286 283 281 279 278 276 274 273 271 270 271 272 277 277 273 268 263 261 261 259 258 259 261 260 256 258 268 269 267 268 268 272 275 277 282 281 282
204 205 208 211 216 223 232 241 252 264 278 289 295 299 300 301 302 304 308 309 310 312 312 313 316 317 318 320 319 320 324 326 328 331 335 337 329 315 307 305 301 300 301 299 295 291 289 287 286 285 283 280 278 276 275 274 273 271 271 275 280 280 276 273 267 262 261 258 256 256 257 258 254 253 261 265 266 269 269 272 275 278 285 283 279
203 205 207 211 216 223 232 242 253 265 278 287 291 296 297 299 302 304 307 309 310 311 312 314 317 319 321 321 320 322 325 329 333 336 338 337 326 314 310 307 305 303 305 304 298 292 290 287 285 285 283 280 279 276 276 275 274 274 272 273 278 278 277 277 271 267 266 260 257 256 255 255 253 251 256 260 262 269 270 271 273 275 286 287 283
203 204 207 211 217 224 232 242 254 265 275 283 289 293 295 298 301 304 306 308 309 310 311 314 318 320 322 323 322 324 327 333 338 341 341 335 321 314 312 311 309 308 308 307 301 295 293 289 286 286 284 283 280 278 278 276 275 275 273 273 276 275 277 279 274 272 274 264 255 258 257 254 253 251 253 257 260 266 270 272 273 276 286 289 286
202 204 207 211 217 225 233 241 252 264 273 281 287 290 293 297 301 303 306 307 308 310 312 316 320 322 323 324 325 326 330 337 343 344 343 335 321 315 315 314 312 312 312 309 304 299 296 292 290 288 285 285 283 280 279 277 275 276 273 271 273 271 274 278 272 272 278 266 253 259 259 254 253 250 248 252 256 259 263 267 271 275 282 284 285
202 204 207 212 218 225 233 242 251 261 271 279 284 287 292 297 300 302 305 306 309 313 315 318 321 325 325 325 328 332 336 342 345 346 344 337 325 318 318 316 315 314 314 311 306 303 300 296 294 291 287 286 285 283 281 278 275 275 273 271 270 269 271 274 269 269 275 265 256 260 259 253 251 247 244 248 252 253 256 262 267 271 275 277 281
201 204 206 212 219 225 233 241 249 259 269 276 281 286 292 296 299 301 304 307 311 315 318 320 323 326 327 328 334 341 343 344 345 345 345 341 329 321 319 318 316 316 314 311 308 306 303 301 298 296 292 290 288 285 283 280 276 275 274 272 270 270 271 272 269 269 270 263 260 261 258 255 252 247 245 247 251 253 255 259 262 264 269 273 277
200 203 206 211 218 225 232 238 246 257 266 273 279 286 292 296 298 302 305 308 313 317 320 322 324 327 330 335 341 346 347 346 344 345 346 343 333 325 322 320 318 317 314 312 309 306 305 304 302 300 299 296 293 288 285 281 278 274 273 271 270 273 274 270 268 269 267 262 260 258 254 252 251 249 247 248 251 254 255 256 257 260 265 269 273
199 202 206 212 218 224 231 236 243 254 263 270 278 286 292 296 300 304 307 311 315 319 322 325 327 330 335 341 346 348 347 347 345 345 347 343 334 327 324 321 320 318 315 312 310 308 307 307 305 304 304 301 296 291 286 282 278 274 271 269 269 272 273 267 264 266 263 258 255 254 251 248 246 247 247 248 250 252 253 253 254 259 265 266 270
198 201 205 211 218 222 227 235 242 252 260 268 276 285 292 297 301 305 309 313 317 321 326 328 330 334 339 346 349 348 347 347 347 348 347 341 333 329 326 324 323 321 317 313 311 310 310 311 310 309 308 304 299 294 287 281 275 270 268 267 266 268 268 262 257 257 255 252 252 253 251 246 243 243 245 247 249 249 250 253 254 258 265 266 268
197 201 205 211 217 219 223 231 240 249 258 267 276 285 292 296 300 305 310 315 320 325 330 332 335 339 343 347 349 349 347 346 348 350 347 339 332 330 328 326 327 325 321 316 314 313 314 315 315 314 313 311 307 299 290 280 270 264 263 263 264 267 265 255 250 249 248 248 249 249 248 246 241 241 244 247 250 251 252 255 257 260 265 267 268
196 200 206 211 213 215 221 227 235 245 257 266 276 284 290 295 300 305 311 316 322 329 333 336 341 344 345 345 347 349 347 347 350 352 347 339 335 333 330 330 332 332 328 324 319 318 318 319 319 318 320 322 317 306 293 283 273 266 264 262 261 262 258 248 244 245 244 244 247 247 248 248 243 242 246 247 250 254 254 256 259 261 264 268 269
196 200 206 208 209 213 219 225 230 242 255 264 273 282 287 293 299 305 312 319 326 332 337 342 346 346 344 344 345 347 349 350 352 351 345 340 339 337 334 334 336 338 336 331 326 323 323 325 327 328 331 335 334 322 305 294 288 279 271 265 259 255 250 243 241 243 243 244 247 248 249 251 249 248 251 250 251 254 254 256 260 262 264 268 266
197 201 204 204 207 212 216 220 227 240 254 264 271 279 286 293 301 308 317 323 329 336 343 347 348 345 344 344 344 346 349 352 353 350 344 341 340 339 337 337 339 342 341 336 331 330 331 334 336 339 341 342 344 343 333 316 307 295 282 273 262 251 246 243 242 242 243 244 247 250 251 252 252 251 251 251 252 253 253 256 260 261 264 266 261
197 200 201 200 205 210 210 213 224 238 253 263 269 278 287 295 303 311 321 329 336 342 347 349 347 344 343 343 343 345 350 353 352 347 342 340 341 340 340 340 341 344 342 338 335 337 340 345 349 352 352 350 350 353 355 356 347 316 289 280 272 259 249 246 245 244 244 244 247 250 251 250 250 250 249 250 252 253 252 255 259 260 261 258 250
194 196 197 199 204 205 203 207 219 233 247 259 265 274 283 291 302 314 325 337 345 347 346 346 344 342 342 343 343 346 349 350 348 344 341 342 343 342 341 342 343 345 344 343 345 349 354 360 3 3 2 2 1 359 356 355 355 344 307 287 283 273 260 252 248 247 246 246 246 248 249 249 248 249 250 250 252 253 253 254 257 257 254 246 237
191 192 195 199 201 199 197 202 214 228 241 253 262 272 282 289 299 313 327 339 347 347 342 341 341 339 339 340 343 347 348 346 344 344 346 347 347 347 346 345 347 350 351 353 356 1 6 9 8 7 7 6 4 3 360 356 353 348 334 308 294 290 279 265 256 252 251 251 251 250 248 247 246 247 248 250 252 253 253 252 252 250 241 231 225
191 191 194 197 195 192 192 199 211 224 234 242 254 269 285 298 309 321 332 340 345 344 340 339 341 341 339 337 339 346 351 349 348 349 351 352 352 353 354 354 355 357 0 3 7 10 14 13 9 6 7 6 4 3 2 359 356 353 347 334 315 307 301 288 273 263 257 254 254 253 250 246 245 245 247 250 254 254 253 251 248 241 230 221 215
193 193 194 193 191 189 191 197 207 219 227 231 236 245 258 286 317 333 338 337 336 338 343 344 344 344 344 340 338 344 352 354 354 354 355 356 357 357 358 2 4 5 6 11 16 18 19 15 10 6 4 3 3 3 2 1 359 356 353 348 337 326 318 307 295 283 268 257 254 253 251 248 247 248 249 253 256 256 254 253 244 231 222 216 210
194 196 193 190 188 188 190 196 207 216 223 227 231 234 234 234 239 315 325 324 328 335 343 349 350 349 348 345 343 347 353 356 356 358 358 359 360 359 359 5 12 15 17 20 22 23 21 17 12 9 5 2 2 3 2 2 1 358 356 354 349 342 334 321 305 292 280 267 259 256 255 254 254 255 255 257 259 258 256 252 240 224 215 210 205
190 194 191 187 186 186 188 196 206 213 218 223 229 234 239 247 248 196 208 287 314 330 338 345 353 355 353 351 348 351 357 360 359 0 2 3 3 1 360 4 12 18 23 27 26 24 22 18 14 12 9 5 4 4 3 2 1 360 358 356 353 348 342 335 325 306 284 272 266 262 262 262 261 261 260 261 261 259 254 247 232 216 208 203 199
185 187 184 183 185 185 188 195 202 209 216 219 224 233 239 267 324 348 358 356 357 357 351 353 359 359 359 359 355 355 1 5 2 2 6 7 5 3 4 8 12 16 21 26 26 24 22 19 15 14 11 8 6 5 4 3 2 1 360 358 355 353 349 344 341 329 301 280 270 267 267 267 266 264 263 263 260 255 248 238 223 211 205 201 194
186 184 181 183 183 183 187 194 198 204 213 216 218 227 236 310 346 357 3 3 3 2 0 3 5 2 2 3 358 358 8 11 6 6 10 11 10 10 12 15 17 19 21 23 24 24 23 21 17 15 13 10 8 7 5 4 4 3 2 359 357 356 355 351 346 339 323 300 284 274 269 268 267 265 264 261 255 247 241 232 218 208 204 200 193
186 184 182 181 181 182 186 190 194 200 206 210 213 212 200 29 3 4 5 5 5 1 358 0 2 2 6 5 359 3 15 15 8 8 12 13 16 19 19 19 19 21 22 23 23 23 23 22 20 17 14 12 10 9 7 6 5 3 2 1 359 357 356 354 349 343 333 318 303 287 271 264 263 264 263 256 245 237 233 225 214 206 203 200 193
183 182 181 180 180 182 185 187 191 196 199 203 204 194 170 138 47 22 9 10 10 2 357 356 355 358 6 6 2 8 15 10 3 7 14 17 20 22 21 20 20 20 22 23 23 23 22 22 21 18 15 13 12 9 7 6 6 4 2 2 2 1 359 356 353 349 340 325 312 300 280 263 257 260 261 250 234 228 226 219 210 204 201 199 193
177 177 179 180 180 181 184 187 190 192 195 197 193 177 163 148 109 48 18 17 12 2 358 357 355 357 1 1 2 10 12 6 3 9 16 20 23 22 20 19 18 18 20 23 24 24 23 23 22 20 17 15 13 10 7 7 7 7 5 4 3 2 2 360 356 352 345 331 317 308 294 273 254 250 253 244 229 223 221 215 207 202 198 196 193
177 176 178 180 180 180 182 185 187 189 191 189 181 171 162 150 132 95 41 27 15 2 358 358 359 1 1 358 1 8 7 2 4 10 14 17 20 21 20 18 17 16 18 21 23 24 23 23 23 21 19 18 16 12 10 9 9 9 8 7 3 1 1 1 359 354 348 338 327 318 307 287 260 239 237 235 227 222 219 213 206 200 197 195 193
179 177 176 178 179 181 181 182 184 187 187 181 174 168 161 152 138 112 71 40 20 7 0 359 1 3 2 360 2 3 0 359 4 8 11 14 17 18 18 18 17 16 16 19 21 23 22 23 23 22 20 19 18 15 13 12 12 11 10 8 5 2 1 1 359 354 349 343 335 329 320 302 272 239 228 227 225 223 220 212 204 199 197 196 194
178 177 176 176 178 179 181 182 182 183 180 175 171 166 160 153 139 117 89 58 36 18 6 3 4 3 2 1 1 359 358 359 3 6 9 12 13 15 16 17 17 17 16 17 20 21 21 22 23 23 20 19 19 17 15 14 13 13 11 9 7 4 2 1 358 353 348 345 341 337 331 319 292 254 234 224 222 222 220 213 204 200 198 196 194
175 176 177 176 176 177 180 181 181 180 176 172 169 164 157 150 139 120 95 69 52 33 18 14 11 5 3 1 359 358 0 2 4 7 9 10 11 12 13 14 16 16 15 15 18 20 20 21 22 22 22 20 19 19 18 15 13 13 13 11 7 4 2 360 358 354 350 347 346 344 339 330 308 270 242 226 220 221 221 216 209 202 199 197 195
174 175 176 176 175 177 178 179 180 177 172 169 168 163 155 147 139 126 102 78 61 44 32 29 21 12 8 5 2 3 7 7 8 9 10 9 10 11 11 11 13 15 15 15 16 18 20 21 21 22 23 22 22 22 21 17 13 13 14 12 7 4 2 1 0 357 353 349 348 347 343 334 315 280 250 230 220 220 221 219 213 207 201 197 195
177 177 176 176 177 178 178 178 177 175 171 169 167 162 155 148 140 129 108 89 73 54 43 37 30 21 15 10 10 12 13 13 12 12 11 11 11 11 11 11 11 13 14 14 14 15 18 20 21 22 23 23 23 24 23 19 16 15 15 12 8 5 4 3 2 0 358 354 350 347 345 339 323 289 258 235 220 219 223 222 217 210 204 199 196
178 178 177 177 178 177 178 178 175 172 171 169 165 160 155 149 142 133 121 110 95 72 55 42 33 27 19 15 17 18 17 17 16 15 14 13 12 12 12 12 13 14 15 14 12 13 16 19 21 22 23 24 24 23 23 21 18 16 15 14 11 8 7 7 7 6 4 1 355 350 346 342 332 299 260 240 224 218 222 223 219 213 209 204 200
177 177 177 179 179 177 178 178 174 171 170 167 163 161 156 150 146 141 134 132 124 96 74 55 39 30 23 20 21 21 20 21 20 17 16 16 14 14 14 14 14 17 17 15 13 12 13 16 19 21 23 25 24 24 24 22 19 16 16 16 14 11 10 12 14 13 11 7 2 356 351 347 339 315 260 239 227 218 218 222 220 215 211 209 205
176 176 177 178 180 179 179 177 174 172 170 166 163 161 157 152 152 151 146 144 140 116 89 67 48 34 25 22 22 22 23 24 21 19 18 18 17 17 17 15 16 18 18 17 16 13 11 13 16 19 22 25 26 26 25 21 17 15 16 17 15 13 14 16 18 18 17 14 11 7 2 356 348 332 279 237 224 216 216 221 222 217 212 210 208
176 177 177 177 179 180 179 176 174 172 169 166 163 161 159 158 158 157 154 152 148 134 113 87 62 43 29 24 23 23 24 25 23 21 20 19 19 19 19 17 17 18 18 17 16 14 11 11 13 15 19 24 26 28 27 22 15 13 15 15 15 15 16 18 21 23 22 21 19 17 13 7 359 347 320 242 221 215 214 220 225 223 216 211 208
176 177 178 177 177 177 177 176 174 172 169 166 164 162 162 163 163 162 160 158 154 145 133 113 84 55 36 29 25 23 23 23 21 20 20 19 18 18 18 17 17 18 18 18 16 13 12 12 12 13 17 22 26 28 29 24 16 12 13 14 15 16 17 19 22 25 26 26 26 23 19 15 11 2 348 277 215 210 210 214 220 224 222 217 212
175 176 177 178 178 178 177 176 175 173 169 166 165 164 165 166 166 165 163 160 157 153 143 125 93 56 37 31 26 23 22 20 18 18 18 18 17 16 16 16 16 16 16 17 16 14 12 12 13 14 16 20 25 28 28 24 17 12 12 14 16 17 18 20 23 25 27 30 30 28 26 24 21 17 13 8 232 204 206 208 212 216 221 222 220
Height
1439 1441 1442 1444 1445 1446 1447 1448 1449 1450 1450 1451 1450 1450 1449 1448 1447 1446 1445 1444 1442 1439 1437 1435 1432 1429 1427 1425 1422 1420 1417 1415 1412 1408 1405 1402 1399 1395 1392 1388 1385 1381 1378 1375 1374 1372 1368 1366 1363 1361 1361 1359 1356 1354 1352 1351 1349 1347 1345 1342 1340 1338 1336 1334 1325 1315 1314 1317 1315 1314 1313 1314 1311 1310 1310 1310 1310 1311 1311 1309 1308 1308 1308 1307 1307
1434 1436 1438 1440 1441 1442 1443 1444 1445 1446 1447 1447 1447 1446 1446 1445 1444 1443 1441 1440 1438 1436 1434 1431 1428 1426 1423 1421 1418 1416 1413 1410 1407 1404 1400 1397 1394 1390 1386 1383 1379 1376 1372 1369 1367 1366 1362 1359 1357 1355 1355 1352 1350 1348 1346 1345 1343 1340 1338 1337 1333 1331 1331 1329 1323 1316 1311 1310 1311 1309 1308 1308 1305 1302 1304 1304 1304 1305 1305 1303 1302 1301 1301 1301 1300
1430 1432 1434 1436 1437 1439 1440 1441 1442 1443 1443 1443 1443 1443 1442 1441 1440 1439 1437 1436 1434 1432 1430 1427 1424 1422 1419 1417 1414 1412 1409 1406 1403 1400 1396 1392 1389 1385 1381 1378 1374 1370 1367 1364 1362 1360 1356 1353 1351 1349 1348 1345 1343 1342 1340 1339 1338 1335 1332 1330 1327 1324 1324 1323 1319 1315 1309 1305 1307 1306 1303 1303 1300 1297 1298 1298 1299 1299 1298 1297 1296 1295 1295 1294 1293
1426 1428 1431 1432 1433 1435 1436 1437 1438 1439 1440 1440 1439 1439 1438 1437 1436 1434 1433 1431 1429 1427 1425 1422 1420 1417 1415 1413 1410 1408 1405 1402 1399 1395 1392 1388 1384 1380 1376 1372 1368 1364 1362 1360 1358 1355 1351 1348 1345 1344 1343 1340 1337 1336 1334 1332 1332 1330 1327 1324 1322 1318 1317 1316 1313 1310 1305 1301 1301 1301 1299 1298 1295 1292 1293 1293 1292 1292 1291 1291 1290 1289 1288 1287 1286
1421 1424 1426 1428 1429 1431 1432 1434 1435 1435 1436 1435 1435 1434 1433 1432 1431 1429 1428 1426 1424 1423 1420 1418 1415 1413 1411 1408 1406 1404 1400 1397 1394 1390 1387 1383 1379 1374 1370 1366 1362 1359 1357 1354 1352 1349 1346 1342 1340 1339 1337 1334 1332 1330 1328 1327 1325 1324 1321 1318 1316 1314 1312 1310 1308 1305 1302 1297 1296 1296 1294 1293 1290 1287 1288 1288 1286 1285 1285 1285 1284 1282 1280 1279 1279
1417 1419 1422 1424 1425 1427 1428 1430 1430 1431 1431 1431 1430 1430 1429 1428 1427 1425 1423 1421 1420 1418 1415 1413 1411 1409 1407 1404 1402 1399 1396 1393 1389 1385 1381 1377 1373 1369 1365 1361 1358 1355 1351 1348 1346 1343 1340 1337 1335 1334 1332 1329 1327 1324 1322 1321 1319 1317 1314 1312 1310 1308 1305 1303 1301 1299 1297 1294 1292 1290 1288 1287 1285 1283 1282 1283 1282 1280 1280 1279 1277 1275 1273 1272 1272
1413 1415 1418 1420 1421 1423 1424 1425 1426 1426 1426 1426 1426 1425 1424 1423 1422 1420 1419 1417 1415 1413 1411 1409 1406 1404 1402 1400 1397 1395 1392 1389 1385 1381 1376 1372 1368 1364 1360 1357 1353 1349 1345 1342 1340 1337 1334 1332 1329 1327 1326 1323 1321 1319 1317 1315 1312 1310 1308 1306 1304 1302 1299 1297 1294 1292 1290 1288 1287 1286 1283 1281 1280 1278 1277 1278 1278 1275 1275 1273 1268 1267 1267 1266 1266
1408 1412 1414 1416 1418 1419 1420 1421 1421 1422 1422 1421 1421 1420 1420 1418 1417 1416 1414 1413 1411 1409 1407 1404 1402 1400 1398 1395 1393 1390 1387 1384 1380 1376 1372 1367 1363 1359 1355 1352 1348 1345 1342 1338 1335 1332 1328 1325 1322 1320 1319 1317 1315 1314 1311 1309 1306 1304 1302 1301 1298 1296 1293 1291 1289 1287 1285 1282 1280 1280 1279 1276 1274 1272 1271 1273 1272 1269 1270 1268 1263 1261 1262 1261 1261
1404 1407 1410 1412 1414 1415 1416 1417 1417 1418 1417 1417 1416 1416 1415 1413 1412 1412 1410 1409 1407 1405 1403 1401 1398 1395 1393 1391 1389 1386 1383 1380 1376 1372 1367 1363 1359 1354 1351 1349 1345 1342 1338 1334 1331 1328 1324 1321 1317 1313 1311 1308 1307 1306 1305 1303 1301 1298 1296 1295 1293 1290 1287 1285 1284 1282 1280 1277 1274 1273 1273 1271 1268 1266 1265 1266 1266 1264 1264 1263 1259 1258 1258 1256 1255
1400 1403 1406 1408 1410 1411 1413 1413 1413 1414 1413 1412 1412 1411 1410 1409 1408 1408 1406 1405 1404 1401 1399 1397 1394 1391 1389 1386 1384 1381 1379 1376 1372 1368 1364 1359 1355 1350 1347 1344 1341 1338 1333 1329 1325 1322 1319 1316 1312 1309 1305 1301 1299 1298 1298 1297 1295 1292 1290 1289 1288 1284 1281 1278 1277 1277 1275 1272 1269 1268 1266 1263 1261 1260 1259 1259 1260 1259 1259 1258 1255 1255 1256 1254 1250
1396 1399 1402 1405 1406 1408 1409 1410 1410 1410 1409 1408 1407 1406 1406 1405 1404 1404 1402 1401 1400 1398 1396 1393 1390 1388 1385 1382 1380 1377 1374 1372 1368 1364 1361 1357 1352 1348 1344 1340 1337 1334 1330 1325 1320 1316 1313 1310 1307 1304 1301 1297 1293 1290 1290 1290 1288 1286 1285 1283 1282 1280 1276 1273 1271 1271 1269 1266 1264 1262 1259 1257 1256 1256 1255 1254 1255 1254 1254 1254 1253 1253 1253 1252 1248
1393 1396 1398 1401 1403 1404 1406 1406 1406 1406 1405 1404 1403 1402 1402 1401 1400 1399 1398 1397 1396 1394 1392 1390 1387 1384 1381 1378 1375 1373 1370 1368 1364 1360 1357 1353 1348 1345 1341 1337 1333 1329 1325 1321 1317 1312 1308 1305 1302 1299 1296 1293 1289 1285 1283 1281 1280 1279 1278 1276 1275 1273 1271 1269 1265 1264 1263 1261 1258 1255 1253 1253 1253 1252 1252 1251 1251 1251 1250 1250 1251 1251 1249 1248 1246
1389 1392 1394 1397 1399 1400 1402 1402 1402 1402 1401 1400 1399 1398 1398 1397 1396 1395 1394 1393 1392 1390 1388 1386 1383 1381 1377 1374 1371 1368 1366 1364 1361 1356 1352 1348 1344 1341 1338 1334 1329 1325 1321 1317 1312 1308 1304 1299 1295 1292 1290 1287 1285 1282 1279 1276 1273 1271 1270 1268 1267 1265 1263 1262 1260 1258 1257 1255 1252 1249 1247 1249 1249 1248 1249 1248 1247 1247 1247 1246 1247 1247 1245 1243 1243
1385 1388 1390 1393 1395 1396 1398 1398 1398 1398 1397 1396 1395 1395 1394 1393 1392 1391 1390 1389 1387 1386 1384 1382 1380 1377 1374 1370 1367 1364 1363 1360 1356 1352 1347 1342 1339 1337 1334 1329 1325 1320 1316 1312 1308 1303 1299 1294 1289 1285 1283 1281 1279 1276 1274 1271 1268 1265 1263 1260 1258 1256 1255 1254 1253 1252 1250 1248 1246 1243 1243 1244 1244 1243 1245 1245 1244 1244 1243 1243 1243 1243 1241 1239 1238
1381 1384 1387 1389 1391 1392 1393 1394 1394 1393 1392 1392 1391 1391 1390 1389 1388 1387 1386 1385 1383 1382 1380 1378 1376 1373 1370 1367 1363 1360 1358 1356 1351 1346 1342 1338 1335 1332 1329 1324 1320 1315 1311 1307 1303 1298 1293 1289 1284 1279 1276 1274 1272 1270 1268 1265 1262 1259 1256 1253 1251 1249 1247 1246 1245 1244 1242 1240 1239 1239 1239 1239 1239 1239 1241 1241 1241 1240 1240 1240 1240 1239 1238 1235 1232
1378 1380 1383 1385 1387 1388 1389 1390 1390 1389 1388 1388 1387 1386 1385 1385 1384 1383 1382 1381 1380 1378 1376 1374 1372 1369 1366 1363 1359 1356 1354 1351 1347 1342 1338 1334 1331 1328 1324 1319 1315 1310 1306 1302 1297 1292 1288 1284 1278 1274 1270 1267 1265 1264 1262 1260 1257 1253 1250 1247 1244 1242 1240 1239 1239 1237 1235 1234 1234 1234 1235 1234 1234 1236 1237 1237 1236 1236 1236 1236 1236 1237 1236 1232 1227
1374 1377 1379 1381 1383 1384 1385 1385 1385 1384 1384 1384 1383 1382 1382 1381 1380 1379 1378 1378 1377 1375 1373 1370 1368 1365 1363 1360 1356 1352 1349 1346 1342 1338 1334 1331 1328 1324 1319 1314 1310 1305 1300 1296 1292 1287 1283 1279 1274 1269 1263 1260 1258 1257 1256 1254 1251 1247 1244 1241 1238 1235 1233 1233 1234 1231 1229 1228 1228 1229 1230 1229 1229 1231 1233 1233 1233 1233 1232 1231 1231 1233 1232 1229 1224
1371 1373 1376 1378 1379 1381 1381 1381 1381 1380 1380 1380 1379 1378 1378 1377 1376 1375 1375 1374 1373 1371 1369 1366 1365 1362 1359 1356 1352 1348 1344 1341 1337 1333 1330 1328 1325 1321 1315 1310 1304 1299 1294 1290 1286 1281 1277 1273 1269 1265 1258 1254 1252 1250 1249 1248 1245 1241 1239 1236 1232 1229 1227 1228 1229 1226 1223 1222 1223 1224 1225 1224 1224 1226 1228 1228 1229 1230 1228 1226 1227 1228 1227 1226 1223
1367 1370 1373 1374 1376 1377 1377 1377 1376 1376 1377 1376 1375 1375 1374 1374 1373 1372 1372 1371 1369 1368 1365 1362 1360 1358 1355 1352 1349 1344 1339 1335 1333 1330 1326 1324 1322 1318 1312 1306 1299 1294 1289 1284 1279 1275 1270 1266 1262 1259 1253 1249 1246 1244 1242 1242 1239 1235 1233 1230 1226 1223 1222 1224 1224 1222 1220 1218 1218 1219 1220 1219 1219 1220 1222 1223 1224 1225 1224 1223 1224 1224 1223 1223 1223
1364 1367 1369 1371 1372 1373 1373 1373 1373 1373 1373 1372 1372 1372 1371 1371 1370 1369 1369 1368 1366 1364 1361 1358 1356 1354 1352 1348 1344 1340 1335 1331 1329 1326 1323 1321 1318 1315 1310 1304 1297 1290 1285 1280 1273 1267 1263 1259 1254 1252 1248 1243 1240 1238 1235 1235 1233 1229 1227 1224 1219 1217 1218 1219 1218 1218 1218 1216 1215 1216 1216 1215 1215 1215 1216 1217 1218 1220 1221 1221 1221 1221 1220 1221 1222
1361 1363 1365 1367 1369 1369 1370 1370 1370 1370 1369 1369 1369 1368 1368 1367 1367 1367 1366 1365 1363 1360 1358 1355 1353 1350 1348 1344 1339 1336 1332 1329 1325 1323 1320 1317 1315 1312 1307 1302 1296 1288 1281 1275 1270 1263 1257 1252 1247 1244 1241 1237 1234 1231 1228 1227 1226 1223 1221 1218 1214 1213 1214 1213 1213 1214 1215 1213 1211 1211 1211 1211 1211 1211 1211 1212 1213 1215 1217 1217 1217 1218 1218 1219 1219
1356 1359 1361 1363 1365 1366 1366 1366 1366 1366 1366 1366 1366 1366 1365 1364 1364 1364 1363 1361 1359 1357 1355 1352 1349 1346 1343 1340 1336 1333 1330 1327 1323 1319 1316 1314 1311 1309 1305 1299 1294 1288 1278 1271 1265 1259 1253 1247 1241 1237 1234 1230 1227 1224 1221 1219 1218 1216 1213 1211 1209 1209 1209 1208 1208 1209 1210 1209 1208 1207 1206 1206 1207 1206 1206 1206 1207 1209 1211 1212 1213 1214 1214 1214 1215
1353 1355 1357 1359 1361 1362 1363 1363 1363 1363 1363 1363 1363 1363 1362 1362 1361 1361 1360 1358 1356 1354 1351 1349 1346 1342 1339 1336 1333 1330 1327 1324 1320 1317 1313 1310 1307 1305 1301 1296 1291 1285 1277 1268 1261 1255 1249 1243 1236 1231 1227 1223 1219 1215 1212 1210 1209 1207 1205 1205 1205 1205 1205 1205 1204 1205 1205 1205 1205 1203 1202 1202 1202 1202 1201 1201 1202 1204 1206 1206 1208 1209 1210 1210 1211
1349 1351 1353 1355 1357 1358 1359 1359 1359 1359 1360 1360 1361 1361 1360 1360 1359 1358 1357 1355 1353 1351 1348 1345 1342 1338 1335 1332 1330 1327 1323 1320 1317 1314 1310 1307 1304 1300 1296 1291 1286 1280 1273 1266 1259 1253 1247 1240 1233 1227 1221 1216 1211 1205 1202 1200 1199 1198 1198 1199 1199 1200 1201 1201 1200 1201 1202 1201 1200 1199 1198 1198 1199 1198 1197 1197 1198 1200 1201 1202 1203 1204 1205 1206 1206
1344 1347 1350 1351 1353 1354 1355 1355 1356 1356 1357 1357 1358 1358 1358 1357 1357 1356 1354 1352 1350 1348 1345 1342 1338 1335 1332 1329 1326 1324 1321 1317 1314 1310 1307 1304 1300 1296 1292 1286 1280 1275 1268 1262 1256 1251 1244 1237 1230 1223 1217 1211 1204 1198 1194 1192 1192 1192 1193 1193 1194 1195 1196 1196 1197 1197 1197 1197 1196 1194 1193 1194 1195 1195 1195 1196 1197 1197 1198 1198 1198 1199 1199 1201 1201
1340 1343 1346 1347 1349 1350 1351 1352 1352 1352 1354 1354 1355 1356 1355 1355 1354 1353 1351 1350 1348 1345 1343 1339 1336 1333 1330 1327 1324 1321 1319 1315 1311 1308 1305 1301 1297 1292 1287 1281 1275 1269 1264 1258 1253 1247 1241 1234 1227 1220 1214 1208 1202 1196 1191 1189 1189 1189 1189 1189 1190 1190 1191 1192 1192 1193 1194 1194 1193 1191 1190 1192 1193 1194 1194 1195 1194 1194 1195 1195 1195 1195 1195 1196 1196
1336 1339 1342 1344 1345 1346 1347 1348 1348 1349 1350 1351 1352 1353 1353 1352 1351 1350 1349 1347 1345 1343 1340 1337 1334 1331 1328 1326 1322 1319 1317 1313 1309 1306 1302 1298 1294 1289 1283 1277 1271 1265 1260 1255 1249 1243 1236 1230 1225 1218 1212 1207 1201 1196 1190 1187 1187 1187 1186 1186 1186 1187 1187 1188 1188 1189 1190 1191 1190 1188 1188 1189 1190 1191 1191 1191 1190 1190 1191 1193 1192 1191 1191 1192 1192
1332 1336 1339 1340 1341 1343 1343 1344 1345 1347 1348 1348 1349 1350 1350 1349 1348 1347 1346 1344 1342 1339 1337 1335 1333 1330 1327 1324 1321 1317 1315 1312 1309 1306 1303 1298 1294 1288 1282 1276 1270 1264 1259 1254 1247 1241 1234 1228 1222 1216 1210 1204 1199 1194 1190 1187 1185 1184 1185 1185 1185 1184 1184 1185 1185 1185 1186 1188 1188 1186 1185 1186 1186 1185 1186 1186 1186 1186 1188 1189 1189 1188 1189 1190 1190
1329 1333 1335 1337 1338 1339 1340 1341 1343 1344 1345 1346 1347 1347 1347 1347 1346 1344 1343 1342 1340 1338 1335 1334 1332 1329 1327 1324 1320 1316 1313 1311 1309 1307 1304 1300 1295 1290 1283 1277 1271 1266 1261 1254 1246 1239 1233 1226 1221 1215 1209 1203 1198 1194 1191 1187 1185 1183 1183 1183 1183 1182 1182 1182 1181 1181 1182 1184 1184 1183 1182 1182 1181 1180 1181 1181 1181 1181 1183 1185 1185 1186 1187 1188 1188
1326 1329 1332 1334 1335 1336 1337 1338 1340 1342 1343 1344 1344 1344 1344 1344 1343 1343 1341 1340 1339 1338 1336 1334 1332 1329 1326 1324 1321 1318 1315 1312 1309 1306 1303 1299 1295 1290 1284 1278 1272 1267 1261 1254 1246 1239 1232 1226 1221 1216 1211 1205 1201 1196 1193 1189 1186 1183 1181 1180 1180 1180 1179 1179 1178 1178 1178 1179 1179 1178 1178 1178 1177 1176 1177 1177 1177 1178 1180 1181 1182 1183 1185 1185 1186
1324 1326 1329 1331 1332 1334 1335 1336 1338 1339 1341 1341 1342 1341 1341 1340 1340 1339 1339 1338 1338 1337 1336 1334 1332 1329 1326 1323 1321 1319 1316 1313 1310 1306 1302 1298 1294 1289 1283 1277 1272 1266 1260 1253 1246 1239 1233 1228 1223 1219 1214 1209 1204 1200 1196 1192 1188 1184 1181 1179 1178 1177 1176 1175 1174 1174 1173 1173 1174 1173 1173 1174 1174 1174 1174 1175 1175 1175 1176 1177 1179 1179 1180 1182 1183
1321 1323 1325 1327 1329 1331 1332 1334 1336 1337 1338 1339 1340 1340 1339 1338 1337 1336 1335 1335 1335 1335 1335 1333 1330 1328 1326 1323 1320 1317 1314 1311 1308 1305 1301 1297 1292 1287 1283 1277 1271 1266 1260 1254 1247 1240 1234 1230 1226 1221 1217 1212 1207 1202 1198 1194 1190 1186 1182 1178 1175 1174 1173 1172 1171 1170 1168 1168 1169 1169 1169 1170 1171 1171 1172 1172 1172 1172 1172 1173 1174 1175 1176 1178 1180
1317 1319 1321 1323 1325 1328 1329 1331 1333 1334 1335 1336 1337 1337 1337 1337 1337 1336 1335 1335 1334 1332 1332 1330 1328 1326 1324 1322 1319 1316 1313 1310 1307 1304 1300 1296 1291 1286 1282 1277 1272 1266 1260 1253 1247 1241 1236 1233 1228 1223 1219 1214 1210 1205 1200 1195 1191 1186 1182 1178 1174 1171 1170 1169 1168 1167 1166 1165 1165 1164 1165 1166 1167 1168 1168 1168 1168 1168 1168 1169 1170 1171 1173 1175 1177
1314 1315 1317 1319 1321 1324 1326 1328 1330 1331 1332 1333 1333 1334 1334 1334 1334 1335 1336 1335 1334 1332 1330 1328 1327 1325 1323 1320 1318 1315 1312 1308 1306 1303 1299 1295 1290 1286 1281 1276 1271 1266 1259 1253 1247 1243 1238 1234 1230 1225 1221 1216 1212 1207 1201 1196 1191 1186 1181 1177 1173 1170 1167 1166 1165 1165 1163 1161 1160 1160 1159 1160 1160 1161 1162 1162 1162 1163 1163 1164 1165 1167 1170 1172 1174
1310 1312 1314 1316 1318 1320 1322 1324 1326 1328 1329 1330 1330 1331 1331 1331 1331 1332 1332 1333 1332 1331 1329 1326 1324 1322 1321 1319 1316 1314 1311 1308 1305 1302 1298 1294 1290 1285 1279 1273 1267 1262 1257 1252 1248 1245 1241 1236 1232 1227 1222 1218 1214 1209 1203 1198 1193 1187 1182 1176 1172 1168 1166 1164 1163 1162 1160 1158 1156 1155 1154 1154 1154 1155 1156 1156 1157 1158 1158 1159 1161 1163 1167 1169 1171
1306 1309 1311 1313 1315 1317 1319 1321 1323 1325 1326 1327 1327 1328 1328 1328 1328 1329 1329 1329 1328 1327 1326 1324 1322 1321 1319 1317 1316 1314 1311 1308 1305 1302 1298 1294 1289 1283 1277 1271 1266 1262 1258 1254 1251 1247 1243 1239 1234 1229 1224 1220 1215 1211 1206 1200 1195 1189 1184 1179 1174 1170 1167 1164 1162 1159 1157 1154 1152 1151 1150 1149 1149 1150 1151 1152 1153 1153 1154 1156 1158 1160 1164 1167 1168
1304 1306 1308 1310 1313 1315 1317 1319 1320 1322 1323 1324 1324 1325 1325 1325 1326 1326 1326 1326 1325 1324 1323 1322 1321 1320 1319 1317 1315 1313 1310 1308 1306 1303 1299 1294 1289 1283 1278 1274 1270 1266 1261 1257 1253 1248 1244 1240 1235 1231 1226 1221 1216 1212 1207 1202 1196 1191 1186 1181 1176 1172 1167 1164 1160 1157 1153 1151 1149 1148 1148 1148 1148 1148 1148 1149 1149 1150 1151 1154 1156 1158 1161 1165 1167
1302 1304 1306 1308 1311 1313 1315 1316 1317 1318 1320 1321 1321 1322 1323 1323 1324 1324 1324 1323 1322 1322 1321 1320 1319 1318 1316 1314 1313 1310 1308 1307 1306 1302 1297 1292 1287 1283 1279 1276 1272 1268 1264 1259 1255 1250 1246 1241 1236 1232 1227 1222 1216 1212 1207 1202 1197 1192 1186 1180 1175 1170 1165 1160 1156 1153 1150 1149 1148 1148 1148 1148 1147 1147 1146 1147 1147 1148 1150 1152 1154 1156 1159 1163 1165
1299 1302 1304 1307 1309 1311 1312 1314 1315 1316 1317 1318 1319 1319 1320 1321 1322 1322 1321 1321 1320 1320 1319 1319 1317 1315 1313 1312 1310 1308 1306 1305 1302 1298 1294 1290 1286 1282 1279 1276 1273 1269 1265 1260 1256 1251 1247 1242 1237 1233 1228 1223 1217 1212 1208 1203 1197 1191 1185 1178 1172 1166 1161 1157 1153 1150 1149 1149 1150 1149 1149 1147 1145 1144 1144 1145 1146 1147 1149 1151 1153 1155 1157 1160 1164
1295 1298 1301 1304 1306 1309 1310 1311 1312 1313 1314 1315 1316 1317 1318 1319 1320 1319 1319 1319 1319 1318 1318 1317 1316 1314 1312 1310 1308 1306 1304 1303 1300 1297 1293 1290 1286 1283 1280 1277 1274 1270 1266 1261 1257 1252 1248 1244 1239 1234 1229 1224 1217 1212 1208 1202 1196 1190 1183 1177 1172 1166 1161 1157 1153 1152 1151 1152 1151 1150 1148 1145 1143 1141 1141 1142 1144 1146 1147 1149 1151 1153 1156 1158 1162
1292 1295 1298 1301 1304 1306 1308 1309 1310 1311 1312 1313 1314 1316 1317 1317 1317 1317 1317 1317 1317 1317 1317 1316 1315 1313 1312 1310 1308 1306 1305 1303 1300 1297 1293 1290 1287 1284 1281 1278 1275 1271 1267 1262 1258 1254 1250 1246 1241 1236 1230 1225 1219 1213 1208 1203 1196 1189 1183 1178 1173 1168 1163 1159 1156 1154 1154 1152 1151 1148 1145 1142 1139 1138 1138 1139 1141 1143 1145 1147 1149 1152 1154 1157 1160
1289 1292 1296 1299 1302 1304 1305 1307 1308 1309 1310 1311 1312 1314 1315 1315 1315 1315 1316 1316 1316 1316 1315 1315 1314 1313 1311 1310 1309 1307 1305 1303 1300 1297 1294 1291 1288 1285 1282 1279 1276 1272 1268 1264 1259 1255 1251 1247 1242 1237 1232 1227 1221 1214 1209 1203 1197 1191 1184 1179 1175 1170 1165 1161 1158 1156 1153 1150 1146 1142 1139 1136 1135 1135 1135 1136 1138 1140 1142 1144 1146 1149 1152 1155 1157
1287 1291 1294 1297 1299 1301 1303 1304 1305 1306 1308 1309 1310 1311 1312 1312 1313 1313 1314 1314 1314 1314 1314 1314 1313 1312 1311 1310 1309 1307 1305 1303 1300 1297 1294 1291 1288 1286 1283 1280 1276 1273 1270 1266 1261 1257 1252 1248 1244 1239 1235 1229 1224 1217 1211 1206 1201 1195 1188 1182 1177 1172 1167 1163 1158 1153 1149 1144 1139 1135 1132 1132 1132 1132 1133 1134 1136 1138 1140 1142 1144 1146 1149 1152 1155
1285 1289 1292 1294 1297 1299 1301 1302 1303 1305 1306 1307 1308 1309 1309 1310 1311 1311 1312 1312 1312 1313 1313 1313 1312 1311 1311 1310 1309 1307 1304 1302 1299 1297 1294 1291 1289 1286 1283 1280 1277 1273 1270 1267 1263 1258 1254 1249 1245 1240 1236 1231 1226 1220 1213 1209 1205 1199 1192 1185 1179 1174 1168 1163 1157 1151 1145 1139 1134 1131 1130 1130 1131 1131 1132 1133 1134 1136 1138 1139 1141 1144 1146 1150 1153
1283 1286 1289 1292 1294 1296 1298 1300 1301 1302 1304 1305 1306 1306 1307 1308 1309 1309 1310 1310 1311 1311 1311 1311 1311 1310 1310 1309 1308 1306 1303 1301 1299 1296 1294 1291 1289 1286 1283 1280 1277 1273 1270 1267 1263 1259 1254 1250 1245 1241 1236 1231 1226 1220 1215 1211 1208 1202 1196 1190 1184 1178 1171 1165 1158 1152 1146 1140 1136 1132 1130 1130 1130 1131 1131 1132 1133 1134 1135 1137 1139 1142 1145 1148 1151
1282 1285 1287 1290 1292 1294 1296 1297 1299 1300 1302 1303 1303 1304 1305 1306 1307 1307 1308 1309 1309 1310 1310 1309 1309 1309 1308 1308 1307 1304 1302 1300 1298 1296 1294 1291 1289 1286 1283 1280 1277 1274 1270 1267 1264 1260 1255 1251 1246 1242 1237 1231 1227 1222 1216 1212 1209 1204 1198 1193 1188 1182 1175 1168 1161 1154 1149 1144 1139 1136 1133 1131 1130 1131 1131 1132 1132 1133 1135 1137 1139 1141 1144 1147 1150
1280 1283 1286 1288 1290 1292 1293 1295 1297 1298 1299 1300 1301 1302 1303 1304 1305 1306 1306 1307 1308 1308 1308 1308 1308 1308 1307 1307 1305 1304 1302 1300 1298 1296 1294 1292 1289 1286 1283 1280 1277 1274 1271 1268 1264 1260 1257 1252 1247 1243 1238 1233 1228 1223 1217 1213 1210 1206 1200 1195 1191 1185 1179 1172 1164 1158 1153 1148 1144 1140 1137 1134 1132 1131 1132 1132 1133 1134 1135 1137 1139 1142 1145 1147 1150
1279 1282 1284 1286 1288 1290 1291 1293 1295 1296 1297 1298 1299 1300 1301 1302 1303 1304 1305 1306 1307 1307 1307 1307 1307 1306 1306 1306 1304 1303 1301 1299 1297 1296 1294 1292 1289 1287 1284 1280 1277 1274 1271 1268 1264 1261 1258 1254 1249 1245 1240 1235 1230 1224 1218 1214 1212 1209 1203 1198 1194 1190 1184 1177 1169 1162 1156 1152 1147 1142 1139 1136 1134 1132 1132 1133 1133 1134 1136 1138 1140 1143 1145 1148 1150
1277 1280 1282 1285 1287 1289 1290 1292 1293 1294 1295 1296 1298 1299 1300 1301 1302 1303 1304 1305 1305 1305 1305 1306 1306 1305 1305 1305 1304 1302 1301 1299 1298 1296 1294 1292 1289 1287 1284 1281 1278 1275 1271 1268 1265 1262 1259 1255 1251 1246 1242 1236 1231 1226 1220 1217 1215 1212 1207 1203 1200 1195 1189 1182 1174 1166 1159 1153 1148 1143 1140 1137 1135 1133 1132 1132 1133 1134 1136 1138 1140 1143 1145 1148 1150
1276 1279 1281 1283 1285 1287 1289 1290 1291 1292 1294 1295 1296 1297 1299 1300 1301 1302 1302 1303 1304 1304 1304 1305 1305 1305 1304 1304 1303 1302 1300 1299 1297 1296 1294 1292 1289 1287 1284 1281 1279 1275 1272 1269 1266 1263 1260 1256 1252 1248 1243 1238 1233 1228 1223 1220 1219 1216 1212 1208 1204 1198 1192 1185 1177 1169 1161 1154 1149 1144 1141 1138 1135 1134 1133 1132 1133 1134 1135 1137 1139 1142 1144 1146 1149
1275 1278 1280 1282 1284 1286 1287 1288 1290 1291 1292 1294 1295 1296 1298 1298 1300 1300 1301 1302 1302 1303 1303 1303 1304 1304 1303 1303 1302 1301 1300 1298 1297 1295 1293 1291 1289 1287 1284 1282 1279 1276 1273 1270 1266 1263 1260 1257 1253 1249 1245 1240 1235 1231 1226 1223 1223 1220 1216 1211 1206 1200 1193 1187 1179 1172 1164 1157 1151 1147 1143 1139 1136 1134 1133 1132 1132 1133 1134 1136 1138 1140 1142 1144 1147